Location: Banff
(51.1667°N, 115.5667°W)
Time: 08:13:06
(UTC+00:00)

N. Korean satellite - Pass Details

Date: 27 November 2022
Orbit: 407 x 442 km, 97.3° (Epoch: 04 February)

Event Time Altitude Azimuth Distance (km) Brightness Sun altitude
Rises 14:13:12 0° 1° (N) 2,533 10.0 -9.9°
Reaches altitude 10° 14:15:38 10° 344° (NNW) 1,651 8.9 -9.5°
Maximum altitude 14:18:16 20° 296° (WNW) 1,158 7.8 -9.2°
Drops below altitude 10° 14:20:53 10° 248° (WSW) 1,638 8.8 -8.8°
Sets 14:23:18 0° 231° (SW) 2,505 9.9 -8.4°
